Regional Weather Roundup
Issued by NWS

Home | Current Version | Previous Version | Text Only | Print | Product List | Glossary On
Versions: 1 2 3 4 5 6 7 8 9 10 11 12 13 14 15 16 17 18 19 20 21 22 23 24 25 26 27 28 29 30 31 32 33 34 35 36 37 38 39 40 41 42 43 44 45 46 47 48 49 50
000
ASUS42 KKEY 300210
RWRKEY

FLORIDA REGIONAL WEATHER ROUNDUP FOR THE FLORIDA KEYS
NATIONAL WEATHER SERVICE KEY WEST FLORIDA
1000 PM EDT FRI AUG 29 2014

...SOUTH FLORIDA AND THE KEYS...

CITY           SKY/WX    TMP DP  RH WIND       PRES   REMARKS
FORT MYERS     CLOUDY    74  70  87 NE8       30.07S
SW REGIONAL AP CLOUDY    76  69  79 NE8       30.08R
NAPLES         CLOUDY    78  72  81 NE6       30.07R
MIAMI          PTCLDY    86  76  71 E12       30.07R HX  96
WEST KENDALL   CLEAR     84  76  76 E7        30.07R HX  93
HOMESTEAD      CLEAR     84  77  79 E6        30.07R HX  95
MARATHON       CLEAR     86  77  74 E8G16     30.05R HX  97
BOCA CHICA NAS PTCLDY    86  77  74 E15       30.05R HX  97
KEY WEST INTL  CLEAR     87  76  69 E14       30.05R HX  97

...INTERNATIONAL WEATHER...

CITY           SKY/WX    TMP DP  RH WIND       PRES   REMARKS
NASSAU BAHAMAS MOCLDY    84  75  74 E6        30.10R HX  92
CANCUN MEXICO  PTCLDY    82  77  83 E6        29.95R HX  91
COZUMEL MEXICO PTCLDY    73  73 100 CALM      29.94R

ADJACENT COASTAL WATERS...

STATION/POSITION TIME  SKY/WX   TEMP    WIND        PRES    WAVE
                                AIR SEA DIR/SP/G            HT/PER
                 (UTC)          (F)     (DEG/KT/KT) (MB)    (FT/S)
PULASKI SHOAL LI 0200            87     110/ 18/ 21 1016.7R
SAND KEY         0136            86     100/ 18/ 20 1017.2R
SOMBRERO KEY     0200            86      90/ 17/ 19 1018.3R
LONG KEY         0200            86 88  110/ 12/ 13 1018.7R
MOLASSES REEF    0200            86 87   80/ 12/ 13 1018.0R
FOWEY ROCKS      0200            86 87   80/ 13/ 14 1018.5R
Buoy 42080       NOT AVBL

$$


USA.gov is the U.S. government's official web portal to all federal, state and local government web resources and services.